TimeEST,TemperatureF,Dew PointF,Humidity,Sea Level PressureIn,VisibilityMPH,Wind Direction,Wind SpeedMPH,Gust SpeedMPH,PrecipitationIn,Events,Conditions,WindDirDegrees,DateUTC
12:01 AM,41.0,39.2,93,29.97,1.2,Calm,Calm,-,N/A,,Overcast,0,2010-01-23 05:01:00
12:21 AM,41.0,41.0,100,29.97,1.2,Calm,Calm,-,N/A,,Overcast,0,2010-01-23 05:21:00
12:41 AM,41.0,39.2,93,29.97,0.5,Calm,Calm,-,N/A,Fog,Fog,0,2010-01-23 05:41:00
1:01 AM,41.0,41.0,100,29.97,0.2,Calm,Calm,-,N/A,Fog,Fog,0,2010-01-23 06:01:00
1:22 AM,41.0,39.2,93,29.98,0.5,Calm,Calm,-,N/A,Fog,Fog,0,2010-01-23 06:22:00
1:41 AM,41.0,41.0,100,29.98,0.5,ENE,3.5,-,N/A,Fog,Fog,60,2010-01-23 06:41:00
2:02 AM,39.2,39.2,100,29.98,0.2,Calm,Calm,-,N/A,Fog,Fog,0,2010-01-23 07:02:00
2:21 AM,39.2,39.2,100,29.98,0.2,ENE,3.5,-,N/A,Fog,Fog,70,2010-01-23 07:21:00
2:41 AM,39.2,39.2,100,29.99,0.2,Calm,Calm,-,N/A,Fog,Fog,0,2010-01-23 07:41:00
3:01 AM,39.2,39.2,100,30.00,0.2,Calm,Calm,-,N/A,Fog,Fog,0,2010-01-23 08:01:00
3:22 AM,37.4,37.4,100,30.00,0.2,Calm,Calm,-,N/A,Fog,Fog,0,2010-01-23 08:22:00
3:42 AM,37.4,37.4,100,30.01,0.2,South,3.5,-,N/A,Fog,Fog,170,2010-01-23 08:42:00
4:03 AM,37.4,37.4,100,30.02,0.2,SSE,3.5,-,N/A,Fog,Fog,150,2010-01-23 09:03:00
4:21 AM,37.4,37.4,100,30.02,0.2,SSE,3.5,-,N/A,Fog,Fog,150,2010-01-23 09:21:00
4:42 AM,37.4,35.6,93,30.02,0.2,Calm,Calm,-,N/A,Rain,Light Rain,0,2010-01-23 09:42:00
5:03 AM,37.4,35.6,93,30.02,0.2,SSE,3.5,-,N/A,Fog,Fog,150,2010-01-23 10:03:00
5:22 AM,37.4,35.6,93,30.04,0.2,SSE,3.5,-,N/A,Fog,Fog,160,2010-01-23 10:22:00
5:42 AM,37.4,35.6,93,30.04,0.2,Calm,Calm,-,N/A,Fog,Fog,0,2010-01-23 10:42:00
6:02 AM,37.4,35.6,93,30.04,0.2,Calm,Calm,-,N/A,Fog,Fog,0,2010-01-23 11:02:00
6:22 AM,37.4,35.6,93,30.05,0.5,Calm,Calm,-,N/A,Fog,Fog,0,2010-01-23 11:22:00
6:42 AM,37.4,35.6,93,30.06,0.2,Calm,Calm,-,N/A,Fog,Fog,0,2010-01-23 11:42:00
7:01 AM,37.4,37.4,100,30.06,0.5,Calm,Calm,-,N/A,Fog,Fog,0,2010-01-23 12:01:00
7:22 AM,37.4,35.6,93,30.07,0.2,SE,3.5,-,N/A,Fog,Fog,130,2010-01-23 12:22:00
7:41 AM,35.6,35.6,100,30.07,0.2,SE,3.5,-,N/A,Fog,Fog,140,2010-01-23 12:41:00
8:02 AM,35.6,35.6,100,30.07,0.2,SE,3.5,-,N/A,Fog,Fog,130,2010-01-23 13:02:00
8:22 AM,35.6,35.6,100,30.08,0.2,Calm,Calm,-,N/A,Fog,Fog,0,2010-01-23 13:22:00
8:41 AM,35.6,35.6,100,30.08,0.2,Calm,Calm,-,N/A,Fog,Fog,0,2010-01-23 13:41:00
9:01 AM,37.4,35.6,93,30.10,0.2,SSE,3.5,-,N/A,Fog,Fog,160,2010-01-23 14:01:00
9:22 AM,35.6,35.6,100,30.09,0.2,SSE,3.5,-,N/A,Fog,Fog,150,2010-01-23 14:22:00
9:42 AM,35.6,35.6,100,30.11,0.2,SE,4.6,-,N/A,Rain,Light Rain,140,2010-01-23 14:42:00
10:02 AM,35.6,35.6,100,30.13,0.2,SSE,4.6,-,N/A,Snow,Light Snow,160,2010-01-23 15:02:00
10:22 AM,35.6,35.6,100,30.13,0.2,SE,4.6,-,N/A,Rain,Light Rain,140,2010-01-23 15:22:00
10:42 AM,35.6,35.6,100,30.11,0.2,SE,8.1,-,N/A,Rain,Rain,130,2010-01-23 15:42:00
11:05 AM,35.6,35.6,100,30.11,0.2,SE,8.1,-,N/A,Rain,Light Rain,140,2010-01-23 16:05:00
11:22 AM,35.6,35.6,100,30.11,0.2,SE,6.9,-,N/A,Fog,Fog,140,2010-01-23 16:22:00
11:42 AM,35.6,35.6,100,30.11,0.2,SSE,6.9,-,N/A,Fog,Fog,150,2010-01-23 16:42:00
12:01 PM,35.6,35.6,100,30.10,0.8,SE,6.9,-,N/A,,Overcast,140,2010-01-23 17:01:00
12:21 PM,35.6,35.6,100,30.09,0.5,SE,4.6,-,N/A,Fog,Fog,140,2010-01-23 17:21:00
12:44 PM,35.6,35.6,100,30.08,0.5,SE,3.5,-,N/A,Fog,Fog,140,2010-01-23 17:44:00
1:02 PM,37.4,37.4,100,30.07,0.2,SE,4.6,-,N/A,Fog,Fog,140,2010-01-23 18:02:00
1:22 PM,35.6,35.6,100,30.07,0.2,SE,4.6,-,N/A,Fog,Fog,140,2010-01-23 18:22:00
1:44 PM,35.6,35.6,100,30.06,0.2,SE,4.6,-,N/A,Fog,Fog,140,2010-01-23 18:44:00
2:02 PM,35.6,35.6,100,30.05,0.2,SE,5.8,-,N/A,Fog,Fog,140,2010-01-23 19:02:00
2:22 PM,35.6,35.6,100,30.05,0.2,SE,5.8,-,N/A,Fog,Fog,140,2010-01-23 19:22:00
2:42 PM,35.6,35.6,100,30.05,0.2,SSE,5.8,-,N/A,Fog,Fog,150,2010-01-23 19:42:00
3:03 PM,37.4,37.4,100,30.04,0.2,SSE,5.8,-,N/A,Fog,Fog,160,2010-01-23 20:03:00
3:22 PM,35.6,35.6,100,30.04,0.2,SE,5.8,-,N/A,Snow,Light Snow,130,2010-01-23 20:22:00
3:41 PM,35.6,35.6,100,30.05,0.2,SSE,3.5,-,N/A,Snow,Light Snow,150,2010-01-23 20:41:00
4:02 PM,35.6,35.6,100,30.05,0.2,SE,4.6,-,N/A,Snow,Light Snow,140,2010-01-23 21:02:00
4:22 PM,35.6,35.6,100,30.05,0.2,SSE,3.5,-,N/A,Fog,Fog,160,2010-01-23 21:22:00
4:41 PM,35.6,35.6,100,30.06,0.2,SSE,3.5,-,N/A,Fog,Fog,150,2010-01-23 21:41:00
5:01 PM,35.6,35.6,100,30.08,0.2,SE,3.5,-,N/A,Fog,Fog,140,2010-01-23 22:01:00
5:22 PM,35.6,35.6,100,30.07,0.2,Calm,Calm,-,N/A,Fog,Fog,0,2010-01-23 22:22:00
5:42 PM,35.6,35.6,100,30.08,0.2,SSE,3.5,-,N/A,Fog,Fog,150,2010-01-23 22:42:00
6:02 PM,35.6,35.6,100,30.08,0.2,SE,3.5,-,N/A,Fog,Fog,140,2010-01-23 23:02:00
6:22 PM,35.6,35.6,100,30.09,0.2,SSE,3.5,-,N/A,Fog,Fog,150,2010-01-23 23:22:00
6:42 PM,35.6,35.6,100,30.09,1.0,SE,3.5,-,N/A,,Overcast,140,2010-01-23 23:42:00
7:01 PM,35.6,35.6,100,30.09,0.8,Calm,Calm,-,N/A,,Overcast,0,2010-01-24 00:01:00
7:22 PM,35.6,35.6,100,30.09,2.5,SSE,3.5,-,N/A,,Overcast,150,2010-01-24 00:22:00
7:42 PM,35.6,35.6,100,30.09,3.0,South,3.5,-,N/A,,Overcast,180,2010-01-24 00:42:00
8:02 PM,35.6,35.6,100,30.08,5.0,Calm,Calm,-,N/A,,Overcast,0,2010-01-24 01:02:00
8:22 PM,35.6,35.6,100,30.07,5.0,SSE,5.8,-,N/A,,Overcast,160,2010-01-24 01:22:00
8:42 PM,35.6,35.6,100,30.07,5.0,South,3.5,-,N/A,,Overcast,170,2010-01-24 01:42:00
9:02 PM,35.6,35.6,100,30.05,5.0,SSE,3.5,-,N/A,,Overcast,160,2010-01-24 02:02:00
9:22 PM,35.6,35.6,100,30.07,7.0,SSE,4.6,-,N/A,,Overcast,160,2010-01-24 02:22:00
9:42 PM,35.6,35.6,100,30.06,5.0,SSE,3.5,-,N/A,,Overcast,160,2010-01-24 02:42:00
10:02 PM,35.6,33.8,93,30.05,7.0,SSE,5.8,-,N/A,,Overcast,160,2010-01-24 03:02:00
10:22 PM,33.8,33.8,100,30.04,10.0,SSE,4.6,-,N/A,,Overcast,150,2010-01-24 03:22:00
10:42 PM,33.8,33.8,100,30.05,10.0,SE,3.5,-,N/A,,Overcast,140,2010-01-24 03:42:00
11:02 PM,33.8,32.0,93,30.04,10.0,SSE,3.5,-,N/A,,Overcast,150,2010-01-24 04:02:00
11:23 PM,33.8,32.0,93,30.04,10.0,SSE,4.6,-,N/A,,Overcast,160,2010-01-24 04:23:00
11:43 PM,33.8,33.8,100,30.04,10.0,SSE,5.8,-,N/A,,Overcast,150,2010-01-24 04:43:00